User: anonymous   Login
Location: Unspecified
(0.0000°N, 0.0000°E)
Time: 05:18:03
(UTC+00:00)
Language:

EUCROPIS - Orbit

View from above orbital plane
View from above orbital plane
View from above satellite
View from above satellite

Ground track
Ground track

The orbit data is extracted from the following two-line orbital elements,

1 43807U 18099BB  22176.43023784  .00001237  00000-0  11238-3 0  9999
2 43807  97.6248 243.8957 0011220 232.8219 127.1979 14.96994592193682
Epoch (UTC): 25 June 2022 10:19:32
Eccentricity: 0.0011220
inclination: 97.6248°
perigee height: 568 km
apogee height: 584 km
right ascension of ascending node: 243.8957°
argument of perigee: 232.8219°
revolutions per day: 14.96994592
mean anomaly at epoch: 127.1979°
orbit number at epoch: 19368

The dashed part of the orbit path shows where the satellite is in the earth's shadow,  

DLR